FW9022 Weather Reports


Display with metric or nautical units.
time (UTC)temp
F
wind
direction
speed
MPH
gust
MPH
rain 1hr
in
rain 24hr
in
rain mn
in
humidity
%
barometer
mb
20260901142828 81 311 0.0 0.0 0.00 0.00 0.00 78 1023.2
20260901141822 79 312 0.0 0.0 0.00 0.00 0.00 80 1023.2
20260901140847 79 312 0.0 0.0 0.00 0.00 0.00 81 1023.3
20260901135830 77 312 0.0 1.0 0.00 0.00 0.00 84 1023.3
20260901134824 77 312 0.0 0.0 0.00 0.00 0.00 84 1023.3
20260901133819 76 312 0.0 1.0 0.00 0.00 0.00 86 1023.4
20260901132837 75 312 0.0 1.0 0.00 0.00 0.00 90 1023.8
20260901131830 73 312 0.0 0.0 0.00 0.00 0.00 93 1023.8
20260901130834 71 312 0.0 0.0 0.00 0.00 0.00 98 1023.8
20260901125833 69 311 0.0 0.0 0.00 0.00 0.00 99 1023.1
20260901124832 68 311 0.0 0.0 0.00 0.00 0.00 99 1023.1
20260901123825 67 230 0.0 0.0 0.00 0.00 0.00 99 1023.1
20260901122818 66 136 0.0 0.0 0.00 0.00 0.00 99 1023.2
20260901121836 65 136 0.0 0.0 0.00 0.00 0.00 98 1023.2
20260901120840 65 136 0.0 0.0 0.00 0.00 0.00 98 1022.9
20260901115819 65 136 0.0 0.0 0.00 0.00 0.00 98 1022.6
20260901114833 64 136 0.0 0.0 0.00 0.00 0.00 98 1022.6
20260901113832 64 136 0.0 0.0 0.00 0.00 0.00 98 1022.5
20260901112825 64 136 0.0 0.0 0.00 0.00 0.00 98 1022.4
20260901111819 64 136 0.0 0.0 0.00 0.00 0.00 98 1022.4
20260901110903 64 136 0.0 0.0 0.00 0.00 0.00 98 1022.7
20260901105825 64 136 0.0 0.0 0.00 0.00 0.00 98 1022.6
20260901104818 64 136 0.0 0.0 0.00 0.00 0.00 97 1022.6
20260901103831 65 136 0.0 0.0 0.00 0.00 0.00 98 1022.6
20260901102829 65 136 0.0 0.0 0.00 0.00 0.00 98 1022.6
20260901101823 65 136 0.0 0.0 0.00 0.00 0.00 98 1022.6
20260901100847 65 136 0.0 0.0 0.00 0.00 0.00 98 1022.2
20260901095826 65 136 0.0 0.0 0.00 0.00 0.00 97 1022.0
20260901094845 65 136 0.0 0.0 0.00 0.00 0.00 98 1022.0
20260901093858 65 136 0.0 0.0 0.00 0.00 0.00 98 1022.0
20260901092830 65 136 0.0 0.0 0.00 0.00 0.00 98 1022.1
20260901091825 65 136 0.0 0.0 0.00 0.00 0.00 97 1022.1
20260901090913 65 136 0.0 0.0 0.00 0.00 0.00 97 1022.0
20260901085831 66 136 0.0 0.0 0.00 0.00 0.00 97 1022.3
20260901084845 66 136 0.0 0.0 0.00 0.00 0.00 97 1022.3
20260901083838 66 136 0.0 0.0 0.00 0.00 0.00 97 1022.3
20260901082835 66 136 0.0 0.0 0.00 0.00 0.00 97 1022.3
20260901081855 66 136 0.0 0.0 0.00 0.00 0.00 97 1022.3
20260901080858 66 136 0.0 0.0 0.00 0.00 0.00 97 1022.3
20260901075817 66 136 0.0 0.0 0.00 0.00 0.00 97 1022.3
20260901074854 66 136 0.0 0.0 0.00 0.00 0.00 97 1022.3
20260901073828 66 136 0.0 0.0 0.00 0.00 0.00 97 1022.2
20260901072822 67 136 0.0 0.0 0.00 0.00 0.00 97 1022.3
20260901071836 67 136 0.0 1.0 0.00 0.00 0.00 97 1022.3
20260901070844 67 136 0.0 0.0 0.00 0.00 0.00 97 1022.2
20260901065823 67 136 0.0 0.0 0.00 0.00 0.00 97 1022.2
20260901064817 67 136 0.0 0.0 0.00 0.00 0.00 97 1022.2
20260901063835 67 136 0.0 0.0 0.00 0.00 0.00 97 1022.1
20260901062830 67 136 0.0 0.0 0.00 0.00 0.00 97 1022.3
20260901061844 67 136 0.0 0.0 0.00 0.00 0.00 97 1022.3
20260901060907 67 136 0.0 0.0 0.00 0.00 0.00 97 1022.5
20260901055846 68 136 0.0 0.0 0.00 0.00 0.00 97 1022.6
20260901054822 68 136 0.0 0.0 0.00 0.00 0.00 97 1022.6
20260901053835 68 136 0.0 0.0 0.00 0.00 0.00 97 1022.6
20260901052830 68 136 0.0 0.0 0.00 0.00 0.00 97 1022.5
20260901051848 68 136 0.0 0.0 0.00 0.00 0.00 97 1022.5
20260901050849 69 136 0.0 0.0 0.00 0.00 0.00 96 1022.8
20260901045828 69 136 0.0 0.0 0.00 0.00 0.00 96 1022.7
20260901044822 69 136 0.0 0.0 0.00 0.00 0.00 96 1022.7
20260901043839 69 136 0.0 0.0 0.00 0.00 0.00 96 1022.6
20260901042832 69 136 0.0 0.0 0.00 0.00 0.00 96 1022.5
20260901041826 69 136 0.0 0.0 0.00 0.00 0.00 96 1022.5
20260901040850 70 136 0.0 0.0 0.00 0.00 0.00 96 1022.4
20260901035834 70 136 0.0 0.0 0.00 0.00 0.00 96 1022.3
20260901034827 70 136 0.0 0.0 0.00 0.00 0.00 96 1022.3
20260901033822 70 136 0.0 0.0 0.00 0.00 0.00 96 1022.2
20260901032819 70 136 0.0 0.0 0.00 0.00 0.00 96 1022.1
20260901031854 70 136 0.0 0.0 0.00 0.00 0.00 96 1022.1
20260901030834 71 136 0.0 0.0 0.00 0.00 0.00 95 1022.1
20260901025833 71 136 0.0 0.0 0.00 0.00 0.00 95 1022.2
20260901024831 71 136 0.0 0.0 0.00 0.00 0.00 95 1022.2
20260901023825 71 136 0.0 0.0 0.00 0.00 0.00 94 1022.2
20260901022819 72 136 0.0 0.0 0.00 0.00 0.00 94 1022.4
20260901021833 72 136 0.0 0.0 0.00 0.00 0.00 94 1022.4
20260901020902 72 136 0.0 0.0 0.00 0.00 0.00 94 1022.3
20260901015820 73 136 0.0 0.0 0.00 0.00 0.00 93 1022.4
20260901014834 73 136 0.0 0.0 0.00 0.00 0.00 93 1022.4
20260901013829 73 136 0.0 0.0 0.00 0.00 0.00 93 1022.3
20260901012828 74 136 0.0 0.0 0.00 0.00 0.00 92 1022.1
20260901011822 74 136 0.0 0.0 0.00 0.00 0.00 91 1022.1
20260901010847 75 136 0.0 0.0 0.00 0.00 0.00 92 1021.3
20260901005851 75 136 0.0 0.0 0.00 0.00 0.00 90 1021.9
20260901004823 76 136 0.0 0.0 0.00 0.00 0.00 90 1021.9
20260901003818 76 136 0.0 0.0 0.00 0.00 0.00 88 1021.9
20260901002833 77 136 0.0 0.0 0.00 0.00 0.00 86 1021.7
20260901001830 78 136 0.0 0.0 0.00 0.00 0.00 86 1021.7
20260901000833 78 136 0.0 0.0 0.00 0.00 0.00 85 1022.0
20260831235834 79 136 0.0 0.0 0.00 0.00 0.00 84 1021.9
20260831234832 80 136 0.0 0.0 0.00 0.00 0.00 83 1021.9
20260831233827 81 136 0.0 0.0 0.00 0.00 0.00 79 1021.7
20260831232841 81 136 0.0 0.0 0.00 0.00 0.00 79 1021.8
20260831231854 81 136 0.0 0.0 0.00 0.00 0.00 78 1021.8
20260831230859 82 136 0.0 0.0 0.00 0.00 0.00 76 1021.9
20260831225819 82 136 0.0 1.0 0.00 0.00 0.00 76 1021.8
20260831224832 82 136 1.0 6.0 0.00 0.00 0.00 73 1021.8
20260831223823 83 118 1.0 7.0 0.00 0.00 0.00 72 1021.8
20260831222837 83 123 2.0 5.0 0.00 0.00 0.00 71 1021.8
20260831221829 84 150 3.0 5.0 0.00 0.00 0.00 71 1021.8
20260831220834 84 269 0.0 5.0 0.00 0.00 0.00 70 1021.8
20260831215831 84 121 0.0 9.0 0.00 0.00 0.00 68 1021.9
20260831214829 84 121 1.0 7.0 0.00 0.00 0.00 66 1021.9
20260831213823 85 157 4.0 9.0 0.00 0.00 0.00 67 1021.7
20260831212818 86 125 2.0 7.0 0.00 0.00 0.00 66 1022.0
20260831211835 85 139 1.0 9.0 0.00 0.00 0.00 66 1022.0
20260831210840 85 242 2.0 8.0 0.00 0.00 0.00 65 1021.8
20260831205840 85 202 5.0 9.0 0.00 0.00 0.00 65 1021.8
20260831204833 85 148 1.0 5.0 0.00 0.00 0.00 66 1021.8
20260831203831 84 229 0.0 2.0 0.00 0.00 0.00 67 1022.2
20260831202826 84 163 2.0 6.0 0.00 0.00 0.00 66 1022.1
20260831201820 84 179 2.0 6.0 0.00 0.00 0.00 66 1022.1
20260831200904 84 181 0.0 3.0 0.00 0.00 0.00 66 1022.0
20260831195826 85 153 3.0 7.0 0.00 0.00 0.00 66 1022.2
20260831194818 86 63 3.0 5.0 0.00 0.00 0.00 64 1022.2
20260831193831 86 24 0.0 4.0 0.00 0.00 0.00 64 1022.3
20260831192828 87 61 4.0 5.0 0.00 0.00 0.00 62 1022.1
20260831191820 88 339 1.0 4.0 0.00 0.00 0.00 61 1022.1
20260831190842 87 29 2.0 4.0 0.00 0.00 0.00 57 1022.3
20260831185840 87 55 1.0 3.0 0.00 0.00 0.00 55 1022.5
20260831184835 87 9 1.0 4.0 0.00 0.00 0.00 56 1022.5
20260831183849 87 241 1.0 4.0 0.00 0.00 0.00 55 1022.6
20260831182819 86 43 3.0 3.0 0.00 0.00 0.00 57 1022.6
20260831181852 86 343 0.0 2.0 0.00 0.00 0.00 58 1022.6
20260831180835 86 355 0.0 4.0 0.00 0.00 0.00 58 1022.6
20260831175819 86 134 0.0 3.0 0.00 0.00 0.00 62 1022.8
20260831174833 85 128 0.0 3.0 0.00 0.00 0.00 64 1022.8
20260831173826 84 128 0.0 2.0 0.00 0.00 0.00 67 1023.0
20260831172825 84 128 0.0 3.0 0.00 0.00 0.00 68 1023.0
20260831171837 85 136 1.0 3.0 0.00 0.00 0.00 67 1023.0
20260831170843 84 45 2.0 3.0 0.00 0.00 0.00 66 1023.1
20260831165842 85 48 2.0 4.0 0.00 0.00 0.00 68 1023.1
20260831164819 84 11 2.0 4.0 0.00 0.00 0.00 69 1023.1
20260831163853 83 78 0.0 3.0 0.00 0.00 0.00 71 1023.6
20260831162826 83 360 3.0 4.0 0.00 0.00 0.00 70 1023.5
20260831161819 83 294 1.0 2.0 0.00 0.00 0.00 74 1023.5
20260831160847 83 294 1.0 2.0 0.00 0.00 0.00 71 1023.4
20260831155826 83 245 0.0 2.0 0.00 0.00 0.00 73 1023.4
20260831154819 83 210 1.0 4.0 0.00 0.00 0.00 73 1023.4
20260831153836 82 61 0.0 2.0 0.00 0.00 0.00 76 1023.7
20260831152831 81 28 0.0 4.0 0.00 0.00 0.00 76 1023.8
20260831151845 81 132 0.0 4.0 0.00 0.00 0.00 77 1023.8
20260831150849 81 166 0.0 2.0 0.00 0.00 0.00 77 1023.6
20260831145832 80 166 0.0 2.0 0.00 0.00 0.00 77 1023.9
20260831144825 80 166 0.0 1.0 0.00 0.00 0.00 77 1023.9
20260831143820 80 166 0.0 0.0 0.00 0.00 0.00 78 1023.8